This is the latest recevied weather packets stored in our database for station/object W1REE. If no packets are shown the sender has not sent any weather packets the latest 10 day(s).
| Time | Temp. | Humidity | Pressure | Rain* | Wind** | Luminosity | Snow |
|---|---|---|---|---|---|---|---|
| 1777703226 | 4.44° C | 49% | 1024.6 hPa | 0 mm | - | 0 W/m² | - |
| 1777702924 | 3.89° C | 49% | 1024.3 hPa | 0 mm | - | 0 W/m² | - |
| 1777702622 | 4.44° C | 49% | 1024.3 hPa | 0 mm | - | 0 W/m² | - |
| 1777702319 | 5° C | 50% | 1024.3 hPa | 0 mm | - | 0 W/m² | - |
| 1777702014 | 3.89° C | 49% | 1024.4 hPa | 0 mm | - | 0 W/m² | - |
| 1777701711 | 4.44° C | 50% | 1024.3 hPa | 0 mm | - | 0 W/m² | - |
| 1777701409 | 5° C | 50% | 1024.2 hPa | 0 mm | - | 0 W/m² | - |
| 1777701107 | 5° C | 49% | 1024.3 hPa | 0 mm | - | 0 W/m² | - |
| 1777700806 | 5° C | 46% | 1024.2 hPa | 0 mm | - | 0 W/m² | - |
| 1777700502 | 5° C | 46% | 1024.1 hPa | 0 mm | - | 0 W/m² | - |
| 1777700200 | 5.56° C | 46% | 1024.2 hPa | 0 mm | - | 0 W/m² | - |
| 1777699897 | 5.56° C | 45% | 1024 hPa | 0 mm | - | 0 W/m² | - |
| 1777699595 | 5.56° C | 46% | 1024 hPa | 0 mm | - | 0 W/m² | - |
| 1777699293 | 6.11° C | 45% | 1024.2 hPa | 0 mm | - | 0 W/m² | - |
| 1777698991 | 6.11° C | 44% | 1024.1 hPa | 0 mm | - | 0 W/m² | - |
| 1777698689 | 6.11° C | 44% | 1024.1 hPa | 0 mm | - | 0 W/m² | - |
| 1777698385 | 6.11° C | 44% | 1024.1 hPa | 0 mm | - | 0 W/m² | - |
| 1777698081 | 6.11° C | 45% | 1023.8 hPa | 0 mm | - | 0 W/m² | - |
| 1777697778 | 6.11° C | 46% | 1024 hPa | 0 mm | - | 0 W/m² | - |
| 1777697475 | 6.11° C | 47% | 1023.8 hPa | 0 mm | - | 0 W/m² | - |
| 1777697172 | 6.11° C | 47% | 1024 hPa | 0 mm | - | 0 W/m² | - |
| 1777696868 | 6.11° C | 47% | 1024.1 hPa | 0 mm | - | 0 W/m² | - |
| 1777696566 | 6.11° C | 48% | 1024 hPa | 0 mm | - | 0 W/m² | - |
| 1777696263 | 6.67° C | 49% | 1024.1 hPa | 0 mm | - | 0 W/m² | - |
| 1777695963 | 6.67° C | 49% | 1024.1 hPa | 0 mm | - | 0 W/m² | - |
* Rain latest hour (hover to see other rain measurements)
** Current wind speed in m/s (hover to see current wind gust speed)